Weather History for Emporia, KS

Change the Weather History Date:

Saturday, July 6, 2013

  Actual Average Record
Temperature  
Mean Temperature 76 °F 78 °F  
Max Temperature 84 °F 89 °F 105 °F (2012)
Min Temperature 67 °F 68 °F 57 °F (2006)
Degree Days  
Heating Degree Days 0 0  
Month to date heating degree days 0 0  
Since 1 June heating degree days 12 8  
Since 1 July heating degree days 0 0  
Cooling Degree Days 11 13  
Month to date cooling degree days 44 76  
Year to date cooling degree days 459 458  
Since 1 June cooling degree days 343 339  
Growing Degree Days 25 (Base 50)    
Moisture  
Dew Point 63 °F    
Average Humidity 64    
Maximum Humidity 76    
Minimum Humidity 51    
Precipitation  
Precipitation 0.07 in 0.16 in 0.16 in (2004)
Month to date precipitation 0.13 0.96  
Year to date precipitation 14.11 19.48  
Sea Level Pressure  
Sea Level Pressure 29.90 in    
Wind  
Wind Speed 14 mph (SSE)    
Max Wind Speed 23 mph    
Max Gust Speed 29 mph    
Visibility 10 miles    
Events Rain , Thunderstorm    
T = Trace of Precipitation, MM = Missing Value Source: NWS Daily Summary

Daily Weather History Graph

Daily Weather History Graph

Search for Another Location

Airport:

Trip Planner

Search our weather history database for the weather conditions in past years. The results will help you decide how hot, cold, wet, or windy it might be!

Date:

Astronomy

Jul. 06, 2013 Rise Set
Actual Time 6:07 AM CDT 8:51 PM CDT
Civil Twilight 5:36 AM CDT 9:22 PM CDT
Nautical Twilight 4:57 AM CDT 10:01 PM CDT
Astronomical Twilight 4:12 AM CDT 10:45 PM CDT
Moon 4:53 AM CDT (7/6) 7:34 PM CDT (7/6)
Length of Visible Light 15h 46m
Length of Day
14h 43m
Waning Crescent, 2% of the Moon is Illuminated
Jul 6
Waning Crescent
Jul 8
New
Jul 15
First Quarter
Jul 22
Full
Jul 29
Last Quarter

Hourly Weather History & Observations

Time (CDT) Temp. Heat Index Dew Point Humidity Pressure Visibility Wind Dir Wind Speed Gust Speed Precip Events Conditions
12:53 AM 72.0 °F - 59.0 °F 64% 29.89 in 10.0 mi SSE 10.4 mph - N/A   Clear
1:53 AM 70.0 °F - 60.1 °F 71% 29.89 in 10.0 mi SSE 8.1 mph - N/A   Clear
2:53 AM 70.0 °F - 60.1 °F 71% 29.88 in 10.0 mi South 10.4 mph - N/A   Partly Cloudy
3:53 AM 69.1 °F - 60.1 °F 73% 29.88 in 10.0 mi South 10.4 mph - N/A   Partly Cloudy
4:53 AM 69.1 °F - 60.1 °F 73% 29.89 in 10.0 mi South 10.4 mph - N/A   Scattered Clouds
5:53 AM 68.0 °F - 60.1 °F 76% 29.91 in 10.0 mi SSE 10.4 mph 27.6 mph N/A   Partly Cloudy
6:53 AM 68.0 °F - 60.1 °F 76% 29.92 in 10.0 mi SSE 9.2 mph - N/A   Clear
7:53 AM 71.1 °F - 61.0 °F 70% 29.92 in 10.0 mi SSE 12.7 mph - N/A   Clear
8:53 AM 75.9 °F - 61.0 °F 60% 29.91 in 10.0 mi South 15.0 mph 23.0 mph N/A   Partly Cloudy
9:53 AM 80.1 °F 81.2 °F 62.1 °F 54% 29.91 in 10.0 mi South 16.1 mph 24.2 mph N/A   Clear
10:53 AM 79.0 °F - 61.0 °F 54% 29.90 in 10.0 mi SSE 18.4 mph 24.2 mph N/A   Clear
11:53 AM 81.0 °F 81.9 °F 62.1 °F 52% 29.89 in 10.0 mi SSE 19.6 mph 28.8 mph N/A   Clear
12:53 PM 82.0 °F 83.1 °F 63.0 °F 52% 29.89 in 10.0 mi South 18.4 mph 27.6 mph N/A   Clear
1:53 PM 82.0 °F 83.1 °F 63.0 °F 52% 29.89 in 10.0 mi South 16.1 mph 25.3 mph N/A   Clear
2:53 PM 81.0 °F 82.2 °F 63.0 °F 54% 29.89 in 10.0 mi South 10.4 mph - N/A   Clear
3:53 PM 81.0 °F 82.5 °F 64.0 °F 56% 29.90 in 10.0 mi South 15.0 mph 21.9 mph N/A   Clear
4:53 PM 78.1 °F - 64.9 °F 64% 29.89 in 9.0 mi South 13.8 mph - 0.00 in Rain Light Rain
5:53 PM 79.0 °F - 64.0 °F 60% 29.88 in 10.0 mi SE 13.8 mph 20.7 mph 0.00 in   Overcast
6:53 PM 78.1 °F - 64.0 °F 62% 29.87 in 10.0 mi SSE 12.7 mph - N/A   Mostly Cloudy
7:00 PM 78.8 °F - 64.4 °F 61% 29.90 in 10.0 mi SSE 12.7 mph - N/A Thunderstorm Mostly Cloudy
7:15 PM 77.0 °F - 64.4 °F 65% 29.91 in 8.0 mi South 15.0 mph - 0.00 in Rain Light Rain
7:40 PM 73.4 °F - 66.2 °F 78% 29.89 in 10.0 mi SE 17.3 mph 26.5 mph 0.06 in Thunderstorm Overcast
7:53 PM 73.9 °F - 66.0 °F 76% 29.87 in 10.0 mi SE 15.0 mph 26.5 mph 0.06 in Thunderstorm Overcast
8:11 PM 73.4 °F - 66.2 °F 78% 29.91 in 10.0 mi SE 11.5 mph - N/A   Overcast
8:53 PM 73.9 °F - 66.0 °F 76% 29.88 in 10.0 mi SSE 13.8 mph - 0.00 in Rain Light Rain
9:53 PM 73.9 °F - 64.9 °F 73% 29.89 in 10.0 mi SSE 16.1 mph 25.3 mph 0.00 in   Mostly Cloudy
10:53 PM 75.0 °F - 63.0 °F 66% 29.91 in 10.0 mi SSE 15.0 mph - 0.01 in   Partly Cloudy
11:53 PM 75.0 °F - 62.1 °F 64% 29.91 in 10.0 mi SSE 12.7 mph 21.9 mph N/A   Partly Cloudy